Weather History for Land O' Lakes, WI

Change the Weather History Date:

Thursday, October 3, 2013

  Actual Average (KEGV) Record (KEGV)
Temperature  
Mean Temperature 54 °F -  
Max Temperature 61 °F 61 °F 80 °F (1992)
Min Temperature 48 °F 37 °F 21 °F (1999)
Degree Days  
Heating Degree Days 10    
Growing Degree Days 4 (Base 50)    
Moisture  
Dew Point 49 °F    
Average Humidity 83    
Maximum Humidity 95    
Minimum Humidity 65    
Precipitation  
Precipitation 0.72 in - - ()
Sea Level Pressure  
Sea Level Pressure 29.98 in    
Wind  
Wind Speed 3 mph (East)    
Max Wind Speed 12 mph    
Max Gust Speed 20 mph    
Visibility 9 miles    
Events Rain    
Averages and records for this station are not official NWS values.
T = Trace of Precipitation, MM = Missing Value Source: NWS Daily Summary

Daily Weather History Graph

Daily Weather History Graph

Search for Another Location

Airport:

Trip Planner

Search our weather history database for the weather conditions in past years. The results will help you decide how hot, cold, wet, or windy it might be!

Date:

Astronomy

Oct. 03, 2013 Rise Set
Actual Time 6:58 AM CDT 6:32 PM CDT
Civil Twilight 6:28 AM CDT 7:02 PM CDT
Nautical Twilight 5:53 AM CDT 7:36 PM CDT
Astronomical Twilight 5:18 AM CDT 8:12 PM CDT
Moon 5:28 AM CDT (10/3) 5:42 PM CDT (10/3)
Length of Visible Light 12h 33m
Length of Day
11h 34m
Waning Crescent, 2% of the Moon is Illuminated
Oct 3
Waning Crescent
Oct 4
New
Oct 11
First Quarter
Oct 18
Full
Oct 26
Last Quarter

Hourly Weather History & Observations

Time (CDT) Temp. Dew Point Humidity Pressure Visibility Wind Dir Wind Speed Gust Speed Precip Events Conditions
12:15 AM 51.8 °F 48.6 °F 89% 30.03 in 10.0 mi Calm Calm - N/A   Light Drizzle
12:35 AM 51.6 °F 47.7 °F 86% 30.03 in 10.0 mi Calm Calm - N/A Rain Light Rain
12:55 AM 50.9 °F 49.3 °F 94% 30.03 in 5.0 mi Calm Calm - 0.01 in Rain Rain
1:15 AM 50.9 °F 49.6 °F 95% 30.04 in 5.0 mi Calm Calm - 0.04 in Rain Rain
1:35 AM 50.9 °F 49.6 °F 95% 30.04 in 5.0 mi Calm Calm - 0.08 in Rain Rain
1:55 AM 50.9 °F 49.5 °F 95% 30.03 in 5.0 mi Calm Calm - 0.15 in Rain Rain
2:15 AM 50.9 °F 49.1 °F 94% 30.03 in 4.0 mi Calm Calm - 0.05 in Rain Rain
2:35 AM 50.5 °F 49.3 °F 95% 30.02 in 5.0 mi SE 4.6 mph - 0.10 in Rain Rain
2:55 AM 50.4 °F 48.7 °F 94% 30.02 in 5.0 mi South 4.6 mph - 0.19 in Rain Heavy Rain
3:15 AM 50.4 °F 48.9 °F 95% 30.01 in 5.0 mi SSE 5.8 mph - 0.08 in Rain Rain
3:35 AM 50.4 °F 48.7 °F 94% 30.00 in 7.0 mi SE 11.5 mph 17.3 mph 0.16 in Rain Rain
3:55 AM 50.0 °F 48.2 °F 94% 29.97 in 7.0 mi SE 9.2 mph 16.1 mph 0.22 in Rain Rain
4:15 AM 49.5 °F 46.9 °F 91% 29.95 in 10.0 mi SE 9.2 mph 19.6 mph 0.02 in Rain Light Rain
4:35 AM 50.0 °F 47.5 °F 91% 29.95 in 10.0 mi South 5.8 mph - 0.04 in Rain Light Rain
4:55 AM 50.0 °F 47.8 °F 92% 29.96 in 10.0 mi SSE 8.1 mph - 0.05 in Rain Rain
5:15 AM 49.5 °F 47.3 °F 92% 29.94 in 10.0 mi SE 6.9 mph - N/A Rain Light Rain
5:35 AM 49.1 °F 46.9 °F 92% 29.97 in 10.0 mi SSW 3.5 mph - 0.01 in Rain Rain
5:55 AM 49.1 °F 46.6 °F 91% 29.98 in 10.0 mi Calm Calm - 0.01 in   Overcast
6:15 AM 49.1 °F 46.9 °F 92% 29.98 in 10.0 mi Calm Calm - N/A   Overcast
6:35 AM 48.9 °F 46.8 °F 92% 29.98 in 10.0 mi Calm Calm - N/A   Overcast
6:55 AM 48.7 °F 46.4 °F 92% 29.97 in 10.0 mi ESE 4.6 mph - N/A   Overcast
7:15 AM 48.4 °F 45.9 °F 91% 29.98 in 10.0 mi SE 3.5 mph - N/A   Mostly Cloudy
7:35 AM 48.4 °F 46.0 °F 92% 29.98 in 10.0 mi Calm Calm - N/A   Mostly Cloudy
7:55 AM 48.9 °F 46.4 °F 91% 29.99 in 10.0 mi SE 3.5 mph - N/A   Mostly Cloudy
8:15 AM 49.6 °F 46.8 °F 90% 29.98 in 10.0 mi SE 3.5 mph - N/A   Overcast
8:35 AM 51.6 °F 47.3 °F 85% 29.97 in 10.0 mi East 4.6 mph - N/A   Overcast
8:55 AM 52.2 °F 46.4 °F 81% 29.99 in 10.0 mi East 3.5 mph - N/A   Overcast
9:15 AM 52.3 °F 46.6 °F 81% 30.00 in 10.0 mi NE 3.5 mph - N/A   Overcast
9:35 AM 52.9 °F 47.1 °F 81% 29.99 in 10.0 mi ENE 3.5 mph - N/A   Overcast
9:55 AM 53.1 °F 47.1 °F 80% 29.98 in 10.0 mi NE 3.5 mph - N/A   Overcast
10:15 AM 54.1 °F 48.0 °F 80% 29.97 in 10.0 mi ENE 4.6 mph - N/A   Overcast
10:35 AM 55.6 °F 47.1 °F 73% 29.97 in 10.0 mi East 6.9 mph - N/A   Overcast
10:55 AM 55.4 °F 46.6 °F 72% 29.97 in 10.0 mi East 4.6 mph - N/A   Overcast
11:15 AM 55.9 °F 46.6 °F 71% 29.98 in 10.0 mi East 6.9 mph - N/A   Overcast
11:35 AM 56.7 °F 47.5 °F 71% 29.99 in 10.0 mi ENE 3.5 mph - N/A   Overcast
11:55 AM 57.0 °F 47.1 °F 69% 29.99 in 10.0 mi ENE 5.8 mph - N/A   Overcast
12:15 PM 57.9 °F 47.1 °F 67% 29.99 in 10.0 mi NE 6.9 mph - N/A   Overcast
12:35 PM 58.8 °F 47.8 °F 67% 29.98 in 10.0 mi East 3.5 mph - N/A   Mostly Cloudy
12:55 PM 59.0 °F 47.8 °F 66% 29.97 in 10.0 mi East 5.8 mph - N/A   Scattered Clouds
1:15 PM 59.0 °F 47.8 °F 66% 29.97 in 10.0 mi East 4.6 mph - N/A   Clear
1:35 PM 59.0 °F 48.6 °F 68% 29.96 in 10.0 mi ENE 5.8 mph - N/A   Clear
1:55 PM 59.4 °F 48.7 °F 68% 29.96 in 10.0 mi ENE 4.6 mph - N/A   Clear
2:15 PM 59.9 °F 48.7 °F 67% 29.96 in 10.0 mi ENE 8.1 mph - N/A   Mostly Cloudy
2:35 PM 59.9 °F 48.7 °F 67% 29.96 in 10.0 mi NE 5.8 mph - N/A   Overcast
2:55 PM 59.9 °F 49.1 °F 67% 29.95 in 3.0 mi East 6.9 mph - N/A   Haze
3:15 PM 60.4 °F 49.3 °F 67% 29.95 in 10.0 mi East 4.6 mph - N/A   Mostly Cloudy
3:35 PM 61.5 °F 49.6 °F 65% 29.95 in 10.0 mi East 6.9 mph - N/A   Overcast
3:55 PM 61.5 °F 49.6 °F 65% 29.95 in 10.0 mi East 6.9 mph - N/A   Scattered Clouds
4:15 PM 60.8 °F 49.6 °F 67% 29.95 in 10.0 mi ENE 5.8 mph - N/A   Mostly Cloudy
4:35 PM 60.4 °F 50.0 °F 68% 29.94 in 10.0 mi ENE 5.8 mph - N/A   Scattered Clouds
4:55 PM 59.9 °F 49.8 °F 69% 29.95 in 10.0 mi ENE 3.5 mph - N/A   Clear
5:15 PM 59.5 °F 50.0 °F 71% 29.95 in 10.0 mi ENE 3.5 mph - N/A   Clear
5:35 PM 59.0 °F 50.4 °F 73% 29.96 in 10.0 mi Calm Calm - N/A   Clear
5:55 PM 58.1 °F 50.9 °F 77% 29.96 in 10.0 mi NE 4.6 mph - N/A   Scattered Clouds
6:15 PM 57.9 °F 50.5 °F 76% 29.97 in 10.0 mi East 5.8 mph - N/A Rain Light Rain
6:35 PM 57.2 °F 50.2 °F 77% 29.98 in 10.0 mi East 6.9 mph - N/A Rain Rain
6:55 PM 55.4 °F 51.4 °F 87% 29.98 in 7.0 mi ENE 3.5 mph - 0.03 in Rain Rain
7:15 PM 54.7 °F 51.8 °F 90% 29.98 in 10.0 mi NE 4.6 mph - 0.02 in Rain Light Rain
7:35 PM 54.0 °F 51.1 °F 90% 29.98 in 10.0 mi NE 3.5 mph - 0.03 in Rain Light Rain
7:55 PM 53.6 °F 51.1 °F 91% 29.99 in 10.0 mi ENE 4.6 mph - 0.04 in Rain Light Rain
8:15 PM 52.9 °F 50.9 °F 93% 30.00 in 10.0 mi NE 3.5 mph - N/A Rain Rain
8:35 PM 52.7 °F 50.4 °F 92% 30.01 in 10.0 mi NNE 3.5 mph - N/A Rain Rain
8:55 PM 52.2 °F 50.2 °F 93% 30.00 in 10.0 mi NE 4.6 mph - 0.01 in Rain Light Rain
9:15 PM 51.8 °F 50.0 °F 94% 29.99 in 10.0 mi ENE 5.8 mph - N/A Rain Light Rain
9:35 PM 51.4 °F 49.8 °F 94% 29.98 in 10.0 mi ENE 4.6 mph - N/A   Overcast
9:55 PM 51.3 °F 49.6 °F 94% 29.99 in 10.0 mi ENE 5.8 mph - N/A   Overcast
10:15 PM 51.3 °F 49.5 °F 94% 30.00 in 10.0 mi ENE 3.5 mph - N/A   Overcast
10:35 PM 51.3 °F 49.3 °F 93% 30.01 in 10.0 mi NE 3.5 mph - N/A   Overcast
11:35 PM 50.9 °F 49.1 °F 94% 29.99 in 10.0 mi NE 5.8 mph - 0.01 in   Overcast
11:55 PM 50.9 °F 49.3 °F 94% 29.99 in 10.0 mi ENE 3.5 mph - 0.01 in   Overcast